Home > Weather > Coral Harbour > Past weeks

Flag for Canada Past Weather in Coral Harbour, Nunavut, Canada — Yesterday and Last 2 Weeks

Now
43 °F

Passing clouds.


Feels Like: 37 °F
Forecast: 41 / 52 °F
Wind: 10 mph from North

Location: Coral Harbour

Current Time: Aug 24, 2016 at 1:58:54 AM

Latest Report: Aug 24, 2016 at 1:00 AM


Visibility: 15 mi

Pressure: 29.73 "Hg

Humidity: 93%

Dew Point: 41 °F

Location of Coral HarbourLocation

Past Weather in Coral Harbour — Graph

°F

Coral Harbour Temperature Yesterday

Maximum temperature yesterday: 52 °F (at 2:00 PM)
Minimum temperature yesterday: 39 °F (at 3:00 AM)
Average temperature yesterday: 45 °F

High & Low Weather Summary for the Past Weeks

 TemperatureHumidityPressure
High72 °F (Aug 14, 1:00 PM)100% (Aug 17, 1:00 AM)30.00 "Hg (Aug 17, 1:00 AM)
Low39 °F (Aug 23, 3:00 AM)18% (Aug 12, 2:00 PM)29.14 "Hg (Aug 22, 10:00 PM)
Average51 °F76%29.75 "Hg
* Reported Aug 9 12:00 AM — Aug 24 12:00 AM, Coral Harbour, Weather by CustomWeather, © 2016

Note: Actual official high and low records may vary slightly from our data, if they occured in-between our weather recording intervals... More about our weather records

Advertising

Coral Harbour Weather History for the Previous 24 Hours

Scroll right to see more
 ConditionsComfort  
Time TempWeatherWind HumidityBarometerVisibility
12:00 AM
Wed, Aug 24
43 °FPartly cloudy.14 mph93%29.73 "Hg15 mi
11:00 PM
Tue, Aug 23
45 °FPartly cloudy.16 mph87%29.72 "Hg15 mi
10:00 PM45 °FPassing clouds.13 mph87%29.72 "Hg15 mi
9:00 PM45 °FPartly sunny.20 mph87%29.70 "Hg15 mi
8:00 PM45 °FPartly sunny.17 mph93%29.70 "Hg15 mi
7:00 PM46 °FPartly sunny.21 mph87%29.68 "Hg15 mi
6:00 PM48 °FPartly sunny.22 mph82%29.67 "Hg15 mi
5:00 PM50 °FPartly sunny.21 mph76%29.65 "Hg15 mi
4:00 PM52 °FPartly sunny.17 mph72%29.64 "Hg15 mi
3:00 PM52 °FPartly sunny.18 mph72%29.62 "Hg15 mi
2:00 PM52 °FPartly sunny.15 mph77%29.59 "Hg15 mi
1:00 PM48 °FBroken clouds.17 mph82%29.58 "Hg15 mi
12:00 PM48 °FLow clouds.17 mph82%29.55 "Hg15 mi
11:00 AM46 °FPartly sunny.22 mph87%29.51 "Hg15 mi
10:00 AM45 °FPartly sunny.21 mph93%29.47 "Hg15 mi
9:00 AM46 °FBroken clouds.20 mph82%29.43 "Hg15 mi
8:00 AM41 °FPartly sunny.18 mph93%29.39 "Hg15 mi
7:00 AM41 °FMostly cloudy.23 mph87%29.34 "Hg15 mi
6:00 AM39 °FLight rain. Partly sunny.25 mph87%29.28 "Hg12 mi
5:00 AM39 °FLight rain. Passing clouds.17 mph87%29.23 "Hg15 mi
4:00 AM39 °FPartly cloudy.24 mph87%29.18 "Hg15 mi
3:00 AM39 °FPassing clouds.29 mph87%29.16 "Hg15 mi
2:00 AM41 °FPassing clouds.30 mph87%29.15 "Hg15 mi
1:00 AM41 °FLight rain. Partly cloudy.28 mph81%29.17 "Hg15 mi
Weather by CustomWeather, © 2016

See weather overviewHow to use our weather pages